Regional Weather Roundup
Issued by NWS

Home | Current Version | Previous Version | Text Only | Print | Product List | Glossary On
Versions: 1 2 3 4 5 6 7 8 9 10 11 12 13 14 15 16 17 18 19 20 21 22 23 24 25 26 27 28 29 30 31 32 33 34 35 36 37 38 39 40 41 42 43 44 45 46 47 48 49 50
000
ASUS43 KFSD 200410
RWRSD

WEATHER ROUNDUP FOR SOUTH DAKOTA
NATIONAL WEATHER SERVICE SIOUX FALLS SD
1000 PM CST FRI DEC 19 2014

NOTE: "FAIR" INDICATES FEW OR NO CLOUDS BELOW 12,000 FEET WITH NO
SIGNIFICANT WEATHER AND/OR OBSTRUCTIONS TO VISIBILITY.


SDZ001>005-009-010-012>017-200500-
NORTHWEST AND NORTH CENTRAL SOUTH DAKOTA

CITY           SKY/WX    TMP DP  RH WIND       PRES   REMARKS
BUFFALO          N/A     29  21  72 W6        29.83F WCI  23
FAITH            N/A     27  22  81 S7        29.92S WCI  19
MOBRIDGE       CLEAR     23  21  92 E8        29.92S WCI  14
$$

SDZ012>016-024>037-041>051-057-063-072>074-200500-
SOUTHWEST AND SOUTH CENTRAL SOUTH DAKOTA

CITY           SKY/WX    TMP DP  RH WIND       PRES   REMARKS
RAPID CTY ARPT CLEAR     21  18  88 W5        29.91F WCI  15
PIERRE         CLEAR     15  14  95 CALM      29.96S FOG
CUSTER         PTCLDY    23  15  71 W5        29.90S WCI  17
ELLSWORTH AFB  CLEAR     29  23  75 W6        29.91S WCI  23
PHILIP         CLOUDY    22  17  81 W5        29.95F WCI  16
PINE RIDGE     CLEAR     21  17  84 W3        29.96S
SPEARFISH      FAIR      32  16  51 W5        29.91S WCI  27
WINNER         FAIR      28  22  78 SW8       29.98S WCI  20
$$

SDZ004>011-016>023-039-040-200500-
NORTHEAST SOUTH DAKOTA

CITY           SKY/WX    TMP DP  RH WIND       PRES   REMARKS
ABERDEEN       CLOUDY    29  26  89 S10       30.01S WCI  20
WATERTOWN      CLOUDY    29  27  92 S13       30.01S FOG     WCI  19
SISSETON         N/A     31  28  89 SW7       30.01F WCI  24
$$

SDZ017-020-022-023-036>040-048>070-200500-
SOUTHEAST SOUTH DAKOTA

CITY           SKY/WX    TMP DP  RH WIND       PRES   REMARKS
SIOUX FALLS    CLOUDY    31  28  89 S13       30.07F WCI  21
HURON          CLOUDY    29  26  89 S15       30.03S FOG     WCI  18
CHAMBERLAIN    FOG       18  17  94 E5        29.99F VSB 3/4 WCI  11
MITCHELL       CLOUDY    30  27  88 S14       30.04F WCI  19
YANKTON        CLOUDY    34  28  80 S6        30.07F WCI  29
$$

ABBREVIATIONS USED IN REMARKS
   TC - TEMPERATURE IN CELSIUS
  WCI - WIND CHILL INDEX
   HX - HEAT INDEX
  VSB - VISIBILITY



USA.gov is the U.S. government's official web portal to all federal, state and local government web resources and services.